Location: Alpine
(43.1636°N, 111.0180°W)
Time: 04:17:44
(UTC+00:00)

Tiros 1 despin weight - Pass Details

Date: 04 June 2022
Orbit: 591 x 639 km, 48.2° (Epoch: 30 June)

Event Time Altitude Azimuth Distance (km) Brightness Sun altitude
Rises 03:42:19 0° 294° (WNW) 2,866 ? -7.2°
Reaches altitude 10° 03:44:39 10° 290° (WNW) 1,952 ? -7.5°
Maximum altitude 03:49:03 59° 212° (SSW) 692 ? -8.1°
Enters shadow 03:53:09 11° 133° (SE) 1,832 ? -8.7°
Drops below altitude 10° 03:53:22 10° 133° (SE) 1,920 - -8.7°
Sets 03:55:40 0° 129° (SE) 2,814 - -9.0°
